This is the latest recevied weather packets stored in our database for station/object KG4LKY-5. If no packets are shown the sender has not sent any weather packets the latest 10 day(s).
| Time | Temp. | Humidity | Pressure | Rain* | Wind** | Luminosity | Snow |
|---|---|---|---|---|---|---|---|
| 1777751252 | 13.89° C | 39% | 1016.4 hPa | 0 mm | - | - | - |
| 1777750951 | 13.89° C | 39% | 1016.4 hPa | 0 mm | - | - | - |
| 1777750653 | - | - | - | - | - | - | - |
| 1777750651 | 13.33° C | 39% | 1016.5 hPa | 0 mm | - | - | - |
| 1777750351 | 13.33° C | 42% | 1016.5 hPa | 0 mm | - | - | - |
| 1777749750 | 12.78° C | 39% | 1016.5 hPa | 0 mm | - | - | - |
| 1777749450 | 12.78° C | 34% | 1016.5 hPa | 0 mm | - | - | - |
| 1777749149 | 13.33° C | 41% | 1016.5 hPa | 0 mm | - | - | - |
| 1777748548 | 15.56° C | 38% | 1016.6 hPa | 0 mm | - | - | - |
| 1777747948 | 17.22° C | 34% | 1016.7 hPa | 0 mm | - | - | - |
| 1777747347 | 15.56° C | 44% | 1016.7 hPa | 0 mm | - | - | - |
| 1777747048 | 13.89° C | 49% | 1016.8 hPa | 0 mm | - | - | - |
| 1777746747 | 12.78° C | 50% | 1016.9 hPa | 0 mm | - | - | - |
| 1777746146 | 13.33° C | 40% | 1017.1 hPa | 0 mm | - | - | - |
| 1777745846 | 12.78° C | 36% | 1017.1 hPa | 0 mm | - | - | - |
| 1777745545 | 13.33° C | 41% | 1017.1 hPa | 0 mm | - | - | - |
| 1777745245 | 13.33° C | 40% | 1017 hPa | 0 mm | - | - | - |
| 1777744945 | 12.78° C | 42% | 1017 hPa | 0 mm | - | - | - |
| 1777744645 | 13.33° C | 41% | 1017 hPa | 0 mm | - | - | - |
| 1777744344 | 12.78° C | 39% | 1017 hPa | 0 mm | - | - | - |
| 1777744044 | 13.33° C | 41% | 1017 hPa | 0 mm | - | - | - |
| 1777743744 | 13.89° C | 33% | 1017 hPa | 0 mm | - | - | - |
| 1777742843 | 12.78° C | 39% | 1017.2 hPa | 0 mm | - | - | - |
| 1777742543 | 13.33° C | 41% | 1017.2 hPa | 0 mm | - | - | - |
| 1777742242 | 13.33° C | 38% | 1017.3 hPa | 0 mm | - | - | - |
* Rain since midnight (hover to see other rain measurements)
** Current wind speed in m/s (hover to see current wind gust speed)